Year,Month,Day,Hour,Minute,Value (Times are PST for temperature in C)
2014,10,04,00,00,13.80
2014,10,04,00,01,13.80
2014,10,04,00,02,13.80
2014,10,04,00,03,13.80
2014,10,04,00,04,13.80
2014,10,04,00,05,13.90
2014,10,04,00,06,13.90
2014,10,04,00,07,13.90
2014,10,04,00,08,13.90
2014,10,04,00,09,13.90
2014,10,04,00,10,13.90
2014,10,04,00,11,13.90
2014,10,04,00,12,14.00
2014,10,04,00,13,14.00
2014,10,04,00,14,14.00
2014,10,04,00,15,14.00
2014,10,04,00,16,14.00
2014,10,04,00,17,14.00
2014,10,04,00,18,14.00
2014,10,04,00,19,14.10
2014,10,04,00,20,14.10
2014,10,04,00,21,14.10
2014,10,04,00,22,14.10
2014,10,04,00,23,14.10
2014,10,04,00,24,14.10
2014,10,04,00,25,14.10
2014,10,04,00,26,14.10
2014,10,04,00,27,14.10
2014,10,04,00,28,14.10
2014,10,04,00,29,14.10
2014,10,04,00,30,14.10
2014,10,04,00,31,14.10
2014,10,04,00,32,14.10
2014,10,04,00,33,14.10
2014,10,04,00,34,14.10
2014,10,04,00,35,14.10
2014,10,04,00,36,14.10
2014,10,04,00,37,14.10
2014,10,04,00,38,14.10
2014,10,04,00,39,14.10
2014,10,04,00,40,14.10
2014,10,04,00,41,14.10
2014,10,04,00,42,14.10
2014,10,04,00,43,14.10
2014,10,04,00,44,14.10
2014,10,04,00,45,14.10
2014,10,04,00,46,14.20
2014,10,04,00,47,14.20
2014,10,04,00,48,14.20
2014,10,04,00,49,14.20
2014,10,04,00,50,14.20
2014,10,04,00,51,14.20
2014,10,04,00,52,14.20
2014,10,04,00,53,14.20
2014,10,04,00,54,14.20
2014,10,04,00,55,14.20
2014,10,04,00,56,14.10
2014,10,04,00,57,14.10
2014,10,04,00,58,14.10
2014,10,04,00,59,14.10
2014,10,04,01,00,14.10
2014,10,04,01,01,14.10
2014,10,04,01,02,14.10
2014,10,04,01,03,14.10
2014,10,04,01,04,14.00
2014,10,04,01,05,14.00
2014,10,04,01,06,14.00
2014,10,04,01,07,14.00
2014,10,04,01,08,14.00
2014,10,04,01,09,14.00
2014,10,04,01,10,14.00
2014,10,04,01,11,14.00
2014,10,04,01,12,14.00
2014,10,04,01,13,14.00
2014,10,04,01,14,14.00
2014,10,04,01,15,14.00
2014,10,04,01,16,14.00
2014,10,04,01,17,14.00
2014,10,04,01,18,14.00
2014,10,04,01,19,14.00
2014,10,04,01,20,13.90
2014,10,04,01,21,13.90
2014,10,04,01,22,13.90
2014,10,04,01,23,13.90
2014,10,04,01,24,13.90
2014,10,04,01,25,13.90
2014,10,04,01,26,13.80
2014,10,04,01,27,13.80
2014,10,04,01,28,13.80
2014,10,04,01,29,13.80
2014,10,04,01,30,13.70
2014,10,04,01,31,13.70
2014,10,04,01,32,13.70
2014,10,04,01,33,13.70
2014,10,04,01,34,13.60
2014,10,04,01,35,13.60
2014,10,04,01,36,13.60
2014,10,04,01,37,13.60
2014,10,04,01,38,13.60
2014,10,04,01,39,13.50
2014,10,04,01,40,13.50
2014,10,04,01,41,13.50
2014,10,04,01,42,13.40
2014,10,04,01,43,13.40
2014,10,04,01,44,13.40
2014,10,04,01,45,13.40
2014,10,04,01,46,13.40
2014,10,04,01,47,13.40
2014,10,04,01,48,13.40
2014,10,04,01,49,13.40
2014,10,04,01,50,13.30
2014,10,04,01,51,13.30
2014,10,04,01,52,13.30
2014,10,04,01,53,13.30
2014,10,04,01,54,13.30
2014,10,04,01,55,13.30
2014,10,04,01,56,13.30
2014,10,04,01,57,13.20
2014,10,04,01,58,13.20
2014,10,04,01,59,13.20
2014,10,04,02,00,13.20
2014,10,04,02,01,13.20
2014,10,04,02,02,13.20
2014,10,04,02,03,13.20
2014,10,04,02,04,13.20
2014,10,04,02,05,13.20
2014,10,04,02,06,13.20
2014,10,04,02,07,13.20
2014,10,04,02,08,13.10
2014,10,04,02,09,13.10
2014,10,04,02,10,13.10
2014,10,04,02,11,13.10
2014,10,04,02,12,13.10
2014,10,04,02,13,13.10
2014,10,04,02,14,13.10
2014,10,04,02,15,13.10
2014,10,04,02,16,13.10
2014,10,04,02,17,13.10
2014,10,04,02,18,13.10
2014,10,04,02,19,13.00
2014,10,04,02,20,13.00
2014,10,04,02,21,13.00
2014,10,04,02,22,13.00
2014,10,04,02,23,12.90
2014,10,04,02,24,12.90
2014,10,04,02,25,12.90
2014,10,04,02,26,12.90
2014,10,04,02,27,12.90
2014,10,04,02,28,12.90
2014,10,04,02,29,12.90
2014,10,04,02,30,12.90
2014,10,04,02,31,12.90
2014,10,04,02,32,12.90
2014,10,04,02,33,12.90
2014,10,04,02,34,12.90
2014,10,04,02,35,12.90
2014,10,04,02,36,12.90
2014,10,04,02,37,12.90
2014,10,04,02,38,12.90
2014,10,04,02,39,12.90
2014,10,04,02,40,12.90
2014,10,04,02,41,12.90
2014,10,04,02,42,12.90
2014,10,04,02,43,12.90
2014,10,04,02,44,12.90
2014,10,04,02,45,12.90
2014,10,04,02,46,12.90
2014,10,04,02,47,12.90
2014,10,04,02,48,12.90
2014,10,04,02,49,12.90
2014,10,04,02,50,12.90
2014,10,04,02,51,12.90
2014,10,04,02,52,12.90
2014,10,04,02,53,12.90
2014,10,04,02,54,12.90
2014,10,04,02,55,12.90
2014,10,04,02,56,12.90
2014,10,04,02,57,12.90
2014,10,04,02,58,12.90
2014,10,04,02,59,12.90
2014,10,04,03,00,12.90
2014,10,04,03,01,12.90
2014,10,04,03,02,12.90
2014,10,04,03,03,12.90
2014,10,04,03,06,12.90
2014,10,04,03,07,12.90
2014,10,04,03,08,12.90
2014,10,04,03,09,13.00
2014,10,04,03,10,13.00
2014,10,04,03,11,13.10
2014,10,04,03,12,13.10
2014,10,04,03,13,13.20
2014,10,04,03,14,13.20
2014,10,04,03,15,13.20
2014,10,04,03,16,13.20
2014,10,04,03,17,13.30
2014,10,04,03,18,13.30
2014,10,04,03,19,13.30
2014,10,04,03,20,13.30
2014,10,04,03,21,13.30
2014,10,04,03,22,13.30
2014,10,04,03,23,13.30
2014,10,04,03,24,13.30
2014,10,04,03,25,13.30
2014,10,04,03,26,13.30
2014,10,04,03,27,13.30
2014,10,04,03,28,13.30
2014,10,04,03,29,13.30
2014,10,04,03,30,13.30
2014,10,04,03,31,13.40
2014,10,04,03,32,13.40
2014,10,04,03,33,13.40
2014,10,04,03,34,13.40
2014,10,04,03,35,13.40
2014,10,04,03,36,13.40
2014,10,04,03,37,13.40
2014,10,04,03,38,13.40
2014,10,04,03,39,13.50
2014,10,04,03,40,13.50
2014,10,04,03,41,13.50
2014,10,04,03,42,13.50
2014,10,04,03,43,13.60
2014,10,04,03,44,13.60
2014,10,04,03,45,13.60
2014,10,04,03,46,13.60
2014,10,04,03,47,13.60
2014,10,04,03,48,13.60
2014,10,04,03,49,13.60
2014,10,04,03,50,13.60
2014,10,04,03,51,13.60
2014,10,04,03,52,13.60
2014,10,04,03,53,13.60
2014,10,04,03,54,13.60
2014,10,04,03,55,13.60
2014,10,04,03,56,13.60
2014,10,04,03,57,13.60
2014,10,04,03,58,13.60
2014,10,04,03,59,13.60
2014,10,04,04,00,13.60
2014,10,04,04,01,13.60
2014,10,04,04,02,13.60
2014,10,04,04,03,13.60
2014,10,04,04,04,13.60
2014,10,04,04,05,13.60
2014,10,04,04,06,13.60
2014,10,04,04,07,13.60
2014,10,04,04,08,13.60
2014,10,04,04,09,13.60
2014,10,04,04,10,13.50
2014,10,04,04,11,13.50
2014,10,04,04,12,13.50
2014,10,04,04,13,13.50
2014,10,04,04,14,13.40
2014,10,04,04,15,13.40
2014,10,04,04,16,13.40
2014,10,04,04,17,13.40
2014,10,04,04,18,13.40
2014,10,04,04,19,13.30
2014,10,04,04,20,13.30
2014,10,04,04,21,13.30
2014,10,04,04,22,13.30
2014,10,04,04,23,13.30
2014,10,04,04,24,13.30
2014,10,04,04,25,13.20
2014,10,04,04,26,13.20
2014,10,04,04,27,13.20
2014,10,04,04,28,13.20
2014,10,04,04,29,13.20
2014,10,04,04,30,13.20
2014,10,04,04,31,13.10
2014,10,04,04,32,13.10
2014,10,04,04,33,13.10
2014,10,04,04,34,13.10
2014,10,04,04,35,13.00
2014,10,04,04,36,13.00
2014,10,04,04,37,13.00
2014,10,04,04,38,12.90
2014,10,04,04,39,12.90
2014,10,04,04,40,12.90
2014,10,04,04,41,12.90
2014,10,04,04,42,12.90
2014,10,04,04,43,12.90
2014,10,04,04,44,12.90
2014,10,04,04,45,12.80
2014,10,04,04,46,12.80
2014,10,04,04,47,12.80
2014,10,04,04,48,12.80
2014,10,04,04,49,12.80
2014,10,04,04,50,12.80
2014,10,04,04,51,12.80
2014,10,04,04,52,12.80
2014,10,04,04,53,12.80
2014,10,04,04,54,12.80
2014,10,04,04,55,12.70
2014,10,04,04,56,12.70
2014,10,04,04,57,12.70
2014,10,04,04,58,12.70
2014,10,04,04,59,12.70
2014,10,04,05,00,12.70
2014,10,04,05,01,12.70
2014,10,04,05,02,12.70
2014,10,04,05,03,12.70
2014,10,04,05,04,12.60
2014,10,04,05,05,12.60
2014,10,04,05,06,12.60
2014,10,04,05,07,12.60
2014,10,04,05,08,12.60
2014,10,04,05,09,12.60
2014,10,04,05,10,12.60
2014,10,04,05,11,12.60
2014,10,04,05,12,12.60
2014,10,04,05,13,12.50
2014,10,04,05,14,12.50
2014,10,04,05,15,12.50
2014,10,04,05,16,12.50
2014,10,04,05,17,12.50
2014,10,04,05,18,12.50
2014,10,04,05,19,12.50
2014,10,04,05,20,12.50
2014,10,04,05,21,12.50
2014,10,04,05,22,12.40
2014,10,04,05,23,12.40
2014,10,04,05,24,12.40
2014,10,04,05,25,12.40
2014,10,04,05,26,12.40
2014,10,04,05,27,12.40
2014,10,04,05,28,12.40
2014,10,04,05,29,12.30
2014,10,04,05,30,12.30
2014,10,04,05,31,12.30
2014,10,04,05,32,12.30
2014,10,04,05,33,12.30
2014,10,04,05,34,12.20
2014,10,04,05,35,12.20
2014,10,04,05,36,12.20
2014,10,04,05,37,12.20
2014,10,04,05,38,12.20
2014,10,04,05,39,12.20
2014,10,04,05,40,12.20
2014,10,04,05,41,12.20
2014,10,04,05,42,12.20
2014,10,04,05,43,12.10
2014,10,04,05,44,12.10
2014,10,04,05,45,12.10
2014,10,04,05,46,12.10
2014,10,04,05,47,12.10
2014,10,04,05,48,12.10
2014,10,04,05,49,12.10
2014,10,04,05,50,12.10
2014,10,04,05,51,12.00
2014,10,04,05,52,12.00
2014,10,04,05,53,12.00
2014,10,04,05,54,12.00
2014,10,04,05,55,12.00
2014,10,04,05,56,12.00
2014,10,04,05,57,12.00
2014,10,04,05,58,12.00
2014,10,04,05,59,12.00
2014,10,04,06,00,12.00
2014,10,04,06,01,12.00
2014,10,04,06,02,12.00
2014,10,04,06,03,12.00
2014,10,04,06,04,12.10
2014,10,04,06,05,12.10
2014,10,04,06,06,12.10
2014,10,04,06,07,12.10
2014,10,04,06,08,12.10
2014,10,04,06,09,12.10
2014,10,04,06,10,12.10
2014,10,04,06,11,12.10
2014,10,04,06,12,12.10
2014,10,04,06,13,12.20
2014,10,04,06,14,12.20
2014,10,04,06,15,12.20
2014,10,04,06,16,12.20
2014,10,04,06,17,12.20
2014,10,04,06,18,12.20
2014,10,04,06,19,12.20
2014,10,04,06,20,12.20
2014,10,04,06,21,12.20
2014,10,04,06,22,12.20
2014,10,04,06,23,12.20
2014,10,04,06,24,12.20
2014,10,04,06,25,12.20
2014,10,04,06,26,12.20
2014,10,04,06,27,12.20
2014,10,04,06,28,12.20
2014,10,04,06,29,12.20
2014,10,04,06,30,12.20
2014,10,04,06,31,12.20
2014,10,04,06,32,12.20
2014,10,04,06,33,12.30
2014,10,04,06,34,12.30
2014,10,04,06,35,12.30
2014,10,04,06,36,12.30
2014,10,04,06,37,12.30
2014,10,04,06,38,12.30
2014,10,04,06,39,12.30
2014,10,04,06,40,12.30
2014,10,04,06,41,12.30
2014,10,04,06,42,12.30
2014,10,04,06,43,12.30
2014,10,04,06,44,12.30
2014,10,04,06,45,12.30
2014,10,04,06,46,12.30
2014,10,04,06,47,12.40
2014,10,04,06,48,12.40
2014,10,04,06,49,12.40
2014,10,04,06,50,12.40
2014,10,04,06,51,12.50
2014,10,04,06,52,12.50
2014,10,04,06,53,12.50
2014,10,04,06,54,12.50
2014,10,04,06,55,12.50
2014,10,04,06,56,12.60
2014,10,04,06,57,12.60
2014,10,04,06,58,12.60
2014,10,04,06,59,12.60
2014,10,04,07,00,12.60
2014,10,04,07,01,12.60
2014,10,04,07,02,12.60
2014,10,04,07,03,12.50
2014,10,04,07,04,12.50
2014,10,04,07,05,12.50
2014,10,04,07,06,12.50
2014,10,04,07,07,12.50
2014,10,04,07,08,12.40
2014,10,04,07,09,12.40
2014,10,04,07,10,12.40
2014,10,04,07,11,12.40
2014,10,04,07,12,12.40
2014,10,04,07,13,12.40
2014,10,04,07,14,12.40
2014,10,04,07,15,12.40
2014,10,04,07,16,12.40
2014,10,04,07,17,12.40
2014,10,04,07,18,12.30
2014,10,04,07,19,12.30
2014,10,04,07,20,12.30
2014,10,04,07,21,12.30
2014,10,04,07,22,12.30
2014,10,04,07,23,12.30
2014,10,04,07,24,12.30
2014,10,04,07,25,12.30
2014,10,04,07,26,12.30
2014,10,04,07,27,12.30
2014,10,04,07,28,12.20
2014,10,04,07,29,12.20
2014,10,04,07,30,12.20
2014,10,04,07,31,12.20
2014,10,04,07,32,12.20
2014,10,04,07,33,12.20
2014,10,04,07,34,12.20
2014,10,04,07,35,12.20
2014,10,04,07,36,12.20
2014,10,04,07,37,12.20
2014,10,04,07,38,12.20
2014,10,04,07,39,12.20
2014,10,04,07,40,12.20
2014,10,04,07,41,12.20
2014,10,04,07,42,12.20
2014,10,04,07,43,12.20
2014,10,04,07,44,12.10
2014,10,04,07,45,12.10
2014,10,04,07,46,12.20
2014,10,04,07,47,12.10
2014,10,04,07,48,12.10
2014,10,04,07,49,12.10
2014,10,04,07,50,12.10
2014,10,04,07,51,12.10
2014,10,04,07,52,12.10
2014,10,04,07,53,12.10
2014,10,04,07,54,12.10
2014,10,04,07,55,12.10
2014,10,04,07,56,12.10
2014,10,04,07,57,12.10
2014,10,04,07,58,12.20
2014,10,04,07,59,12.20
2014,10,04,08,00,12.20
2014,10,04,08,01,12.20
2014,10,04,08,02,12.20
2014,10,04,08,03,12.20
2014,10,04,08,04,12.20
2014,10,04,08,05,12.20
2014,10,04,08,06,12.30
2014,10,04,08,07,12.30
2014,10,04,08,08,12.30
2014,10,04,08,09,12.30
2014,10,04,08,10,12.30
2014,10,04,08,11,12.40
2014,10,04,08,12,12.40
2014,10,04,08,13,12.40
2014,10,04,08,14,12.40
2014,10,04,08,15,12.40
2014,10,04,08,16,12.50
2014,10,04,08,17,12.50
2014,10,04,08,18,12.50
2014,10,04,08,19,12.50
2014,10,04,08,20,12.60
2014,10,04,08,21,12.60
2014,10,04,08,22,12.60
2014,10,04,08,23,12.60
2014,10,04,08,24,12.60
2014,10,04,08,25,12.60
2014,10,04,08,26,12.60
2014,10,04,08,27,12.60
2014,10,04,08,28,12.60
2014,10,04,08,29,12.60
2014,10,04,08,30,12.60
2014,10,04,08,31,12.60
2014,10,04,08,32,12.70
2014,10,04,08,33,12.70
2014,10,04,08,34,12.70
2014,10,04,08,35,12.70
2014,10,04,08,36,12.70
2014,10,04,08,37,12.70
2014,10,04,08,38,12.70
2014,10,04,08,39,12.70
2014,10,04,08,40,12.70
2014,10,04,08,41,12.80
2014,10,04,08,42,12.80
2014,10,04,08,43,12.80
2014,10,04,08,44,12.80
2014,10,04,08,45,12.80
2014,10,04,08,46,12.80
2014,10,04,08,47,12.80
2014,10,04,08,48,12.80
2014,10,04,08,49,12.80
2014,10,04,08,50,12.90
2014,10,04,08,51,12.90
2014,10,04,08,52,12.90
2014,10,04,08,53,12.90
2014,10,04,08,54,12.90
2014,10,04,08,55,12.90
2014,10,04,08,56,13.00
2014,10,04,08,57,13.00
2014,10,04,08,58,13.00
2014,10,04,08,59,13.00
2014,10,04,09,00,13.10
2014,10,04,09,01,13.10
2014,10,04,09,02,13.10
2014,10,04,09,03,13.10
2014,10,04,09,04,13.10
2014,10,04,09,05,13.20
2014,10,04,09,06,13.20
2014,10,04,09,07,13.20
2014,10,04,09,08,13.30
2014,10,04,09,09,13.30
2014,10,04,09,10,13.30
2014,10,04,09,11,13.30
2014,10,04,09,12,13.30
2014,10,04,09,13,13.40
2014,10,04,09,14,13.40
2014,10,04,09,15,13.40
2014,10,04,09,16,13.40
2014,10,04,09,17,13.40
2014,10,04,09,18,13.50
2014,10,04,09,19,13.50
2014,10,04,09,20,13.50
2014,10,04,09,21,13.60
2014,10,04,09,22,13.60
2014,10,04,09,23,13.60
2014,10,04,09,24,13.70
2014,10,04,09,25,13.70
2014,10,04,09,26,13.70
2014,10,04,09,27,13.70
2014,10,04,09,28,13.80
2014,10,04,09,29,13.80
2014,10,04,09,30,13.80
2014,10,04,09,31,13.80
2014,10,04,09,32,13.90
2014,10,04,09,33,13.90
2014,10,04,09,34,13.90
2014,10,04,09,35,13.90
2014,10,04,09,36,14.00
2014,10,04,09,37,14.00
2014,10,04,09,38,14.00
2014,10,04,09,39,14.10
2014,10,04,09,40,14.10
2014,10,04,09,41,14.10
2014,10,04,09,42,14.10
2014,10,04,09,43,14.10
2014,10,04,09,44,14.20
2014,10,04,09,45,14.20
2014,10,04,09,46,14.20
2014,10,04,09,47,14.20
2014,10,04,09,48,14.20
2014,10,04,09,49,14.20
2014,10,04,09,50,14.20
2014,10,04,09,51,14.30
2014,10,04,09,52,14.30
2014,10,04,09,53,14.30
2014,10,04,09,54,14.30
2014,10,04,09,55,14.30
2014,10,04,09,56,14.30
2014,10,04,09,57,14.30
2014,10,04,09,58,14.30
2014,10,04,09,59,14.30
2014,10,04,10,00,14.30
2014,10,04,10,01,14.30
2014,10,04,10,02,14.30
2014,10,04,10,03,14.30
2014,10,04,10,04,14.30
2014,10,04,10,05,14.40
2014,10,04,10,06,14.40
2014,10,04,10,07,14.40
2014,10,04,10,08,14.40
2014,10,04,10,09,14.40
2014,10,04,10,10,14.40
2014,10,04,10,11,14.40
2014,10,04,10,12,14.40
2014,10,04,10,13,14.50
2014,10,04,10,14,14.50
2014,10,04,10,15,14.50
2014,10,04,10,16,14.50
2014,10,04,10,17,14.50
2014,10,04,10,18,14.60
2014,10,04,10,19,14.60
2014,10,04,10,20,14.60
2014,10,04,10,21,14.60
2014,10,04,10,22,14.60
2014,10,04,10,23,14.70
2014,10,04,10,24,14.70
2014,10,04,10,25,14.70
2014,10,04,10,26,14.70
2014,10,04,10,27,14.70
2014,10,04,10,28,14.80
2014,10,04,10,29,14.80
2014,10,04,10,30,14.80
2014,10,04,10,31,14.80
2014,10,04,10,32,14.90
2014,10,04,10,33,14.90
2014,10,04,10,34,14.90
2014,10,04,10,35,14.90
2014,10,04,10,36,14.90
2014,10,04,10,37,15.00
2014,10,04,10,38,15.00
2014,10,04,10,39,15.00
2014,10,04,10,40,15.10
2014,10,04,10,41,15.10
2014,10,04,10,42,15.10
2014,10,04,10,43,15.10
2014,10,04,10,44,15.10
2014,10,04,10,45,15.10
2014,10,04,10,46,15.20
2014,10,04,10,47,15.20
2014,10,04,10,48,15.20
2014,10,04,10,49,15.20
2014,10,04,10,50,15.20
2014,10,04,10,51,15.20
2014,10,04,10,52,15.20
2014,10,04,10,53,15.20
2014,10,04,10,54,15.20
2014,10,04,10,55,15.20
2014,10,04,10,56,15.20
2014,10,04,10,57,15.20
2014,10,04,10,58,15.20
2014,10,04,10,59,15.10
2014,10,04,11,00,15.10
2014,10,04,11,01,15.10
2014,10,04,11,02,15.10
2014,10,04,11,03,15.10
2014,10,04,11,04,15.00
2014,10,04,11,05,15.00
2014,10,04,11,06,15.00
2014,10,04,11,07,15.00
2014,10,04,11,08,15.00
2014,10,04,11,09,15.10
2014,10,04,11,10,15.10
2014,10,04,11,11,15.10
2014,10,04,11,12,15.10
2014,10,04,11,13,15.10
2014,10,04,11,14,15.10
2014,10,04,11,15,15.20
2014,10,04,11,16,15.20
2014,10,04,11,17,15.20
2014,10,04,11,18,15.20
2014,10,04,11,19,15.20
2014,10,04,11,20,15.20
2014,10,04,11,21,15.30
2014,10,04,11,22,15.30
2014,10,04,11,23,15.30
2014,10,04,11,24,15.30
2014,10,04,11,25,15.40
2014,10,04,11,26,15.40
2014,10,04,11,27,15.40
2014,10,04,11,28,15.40
2014,10,04,11,29,15.40
2014,10,04,11,30,15.40
2014,10,04,11,31,15.40
2014,10,04,11,32,15.40
2014,10,04,11,33,15.40
2014,10,04,11,34,15.40
2014,10,04,11,35,15.40
2014,10,04,11,36,15.40
2014,10,04,11,37,15.40
2014,10,04,11,38,15.40
2014,10,04,11,39,15.40
2014,10,04,11,40,15.40
2014,10,04,11,41,15.40
2014,10,04,11,42,15.50
2014,10,04,11,43,15.50
2014,10,04,11,44,15.50
2014,10,04,11,45,15.50
2014,10,04,11,46,15.50
2014,10,04,11,47,15.60
2014,10,04,11,48,15.60
2014,10,04,11,49,15.60
2014,10,04,11,50,15.60
2014,10,04,11,51,15.60
2014,10,04,11,52,15.70
2014,10,04,11,53,15.70
2014,10,04,11,54,15.70
2014,10,04,11,55,15.70
2014,10,04,11,56,15.70
2014,10,04,11,57,15.70
2014,10,04,11,58,15.70
2014,10,04,11,59,15.70
2014,10,04,12,00,15.70
2014,10,04,12,01,15.70
2014,10,04,12,02,15.70
2014,10,04,12,03,15.80
2014,10,04,12,04,15.80
2014,10,04,12,05,15.80
2014,10,04,12,06,15.80
2014,10,04,12,07,15.80
2014,10,04,12,08,15.80
2014,10,04,12,09,15.80
2014,10,04,12,10,15.90
2014,10,04,12,11,15.90
2014,10,04,12,12,15.90
2014,10,04,12,13,16.00
2014,10,04,12,14,16.00
2014,10,04,12,15,16.00
2014,10,04,12,16,16.10
2014,10,04,12,17,16.10
2014,10,04,12,18,16.10
2014,10,04,12,19,16.10
2014,10,04,12,20,16.10
2014,10,04,12,21,16.20
2014,10,04,12,22,16.20
2014,10,04,12,23,16.20
2014,10,04,12,24,16.20
2014,10,04,12,25,16.20
2014,10,04,12,26,16.20
2014,10,04,12,27,16.20
2014,10,04,12,28,16.30
2014,10,04,12,29,16.30
2014,10,04,12,30,16.30
2014,10,04,12,31,16.30
2014,10,04,12,32,16.40
2014,10,04,12,33,16.40
2014,10,04,12,34,16.30
2014,10,04,12,35,16.30
2014,10,04,12,36,16.20
2014,10,04,12,37,16.10
2014,10,04,12,38,16.00
2014,10,04,12,39,15.90
2014,10,04,12,40,15.80
2014,10,04,12,41,15.70
2014,10,04,12,42,15.60
2014,10,04,12,43,15.50
2014,10,04,12,44,15.40
2014,10,04,12,45,15.30
2014,10,04,12,46,15.20
2014,10,04,12,47,15.20
2014,10,04,12,48,15.10
2014,10,04,12,49,15.10
2014,10,04,12,50,15.00
2014,10,04,12,51,15.00
2014,10,04,12,52,14.90
2014,10,04,12,53,14.90
2014,10,04,12,54,14.80
2014,10,04,12,55,14.80
2014,10,04,12,56,14.80
2014,10,04,12,57,14.80
2014,10,04,12,58,14.80
2014,10,04,12,59,14.80
2014,10,04,13,00,14.80
2014,10,04,13,01,14.80
2014,10,04,13,02,14.80
2014,10,04,13,03,14.80
2014,10,04,13,04,14.80
2014,10,04,13,05,14.80
2014,10,04,13,06,14.80
2014,10,04,13,07,14.80
2014,10,04,13,08,14.80
2014,10,04,13,09,14.80
2014,10,04,13,10,14.80
2014,10,04,13,11,14.80
2014,10,04,13,12,14.80
2014,10,04,13,13,14.80
2014,10,04,13,14,14.80
2014,10,04,13,15,14.80
2014,10,04,13,16,14.80
2014,10,04,13,17,14.80
2014,10,04,13,18,14.80
2014,10,04,13,19,14.70
2014,10,04,13,20,14.80
2014,10,04,13,21,14.80
2014,10,04,13,22,14.80
2014,10,04,13,23,14.80
2014,10,04,13,24,14.80
2014,10,04,13,25,14.90
2014,10,04,13,26,14.90
2014,10,04,13,27,14.90
2014,10,04,13,28,15.00
2014,10,04,13,29,15.00
2014,10,04,13,30,15.10
2014,10,04,13,31,15.10
2014,10,04,13,32,15.10
2014,10,04,13,33,15.10
2014,10,04,13,34,15.20
2014,10,04,13,35,15.20
2014,10,04,13,36,15.20
2014,10,04,13,37,15.30
2014,10,04,13,38,15.30
2014,10,04,13,39,15.40
2014,10,04,13,40,15.40
2014,10,04,13,41,15.40
2014,10,04,13,42,15.40
2014,10,04,13,43,15.50
2014,10,04,13,44,15.50
2014,10,04,13,45,15.50
2014,10,04,13,46,15.50
2014,10,04,13,47,15.50
2014,10,04,13,48,15.50
2014,10,04,13,49,15.50
2014,10,04,13,50,15.50
2014,10,04,13,51,15.60
2014,10,04,13,52,15.60
2014,10,04,13,53,15.60
2014,10,04,13,54,15.60
2014,10,04,13,55,15.60
2014,10,04,13,56,15.60
2014,10,04,13,57,15.60
2014,10,04,13,58,15.60
2014,10,04,13,59,15.60
2014,10,04,14,00,15.60
2014,10,04,14,01,15.60
2014,10,04,14,02,15.60
2014,10,04,14,03,15.60
2014,10,04,14,04,15.60
2014,10,04,14,05,15.60
2014,10,04,14,06,15.70
2014,10,04,14,07,15.70
2014,10,04,14,08,15.70
2014,10,04,14,09,15.70
2014,10,04,14,10,15.70
2014,10,04,14,11,15.80
2014,10,04,14,12,15.80
2014,10,04,14,13,15.80
2014,10,04,14,14,15.80
2014,10,04,14,15,15.90
2014,10,04,14,16,15.90
2014,10,04,14,17,16.00
2014,10,04,14,18,16.00
2014,10,04,14,19,16.10
2014,10,04,14,20,16.10
2014,10,04,14,21,16.20
2014,10,04,14,22,16.20
2014,10,04,14,23,16.20
2014,10,04,14,24,16.20
2014,10,04,14,25,16.20
2014,10,04,14,26,16.20
2014,10,04,14,27,16.20
2014,10,04,14,28,16.20
2014,10,04,14,29,16.20
2014,10,04,14,30,16.20
2014,10,04,14,31,16.20
2014,10,04,14,32,16.20
2014,10,04,14,33,16.20
2014,10,04,14,34,16.20
2014,10,04,14,35,16.20
2014,10,04,14,36,16.20
2014,10,04,14,37,16.20
2014,10,04,14,38,16.20
2014,10,04,14,39,16.20
2014,10,04,14,40,16.10
2014,10,04,14,41,16.10
2014,10,04,14,42,16.10
2014,10,04,14,43,16.10
2014,10,04,14,44,16.00
2014,10,04,14,45,16.00
2014,10,04,14,46,16.00
2014,10,04,14,47,15.90
2014,10,04,14,48,15.90
2014,10,04,14,49,15.90
2014,10,04,14,50,15.90
2014,10,04,14,51,15.80
2014,10,04,14,52,15.80
2014,10,04,14,53,15.80
2014,10,04,14,54,15.70
2014,10,04,14,55,15.70
2014,10,04,14,56,15.70
2014,10,04,14,57,15.60
2014,10,04,14,58,15.50
2014,10,04,14,59,15.50
2014,10,04,15,00,15.40
2014,10,04,15,01,15.40
2014,10,04,15,02,15.40
2014,10,04,15,03,15.40
2014,10,04,15,04,15.40
2014,10,04,15,05,15.40
2014,10,04,15,06,15.40
2014,10,04,15,07,15.40
2014,10,04,15,08,15.40
2014,10,04,15,09,15.40
2014,10,04,15,10,15.40
2014,10,04,15,11,15.40
2014,10,04,15,12,15.50
2014,10,04,15,13,15.50
2014,10,04,15,14,15.50
2014,10,04,15,15,15.50
2014,10,04,15,16,15.50
2014,10,04,15,17,15.60
2014,10,04,15,18,15.60
2014,10,04,15,19,15.60
2014,10,04,15,20,15.60
2014,10,04,15,21,15.60
2014,10,04,15,22,15.70
2014,10,04,15,23,15.70
2014,10,04,15,24,15.70
2014,10,04,15,25,15.70
2014,10,04,15,26,15.80
2014,10,04,15,27,15.80
2014,10,04,15,28,15.80
2014,10,04,15,29,15.90
2014,10,04,15,30,15.90
2014,10,04,15,31,15.90
2014,10,04,15,32,16.00
2014,10,04,15,33,16.00
2014,10,04,15,34,16.00
2014,10,04,15,35,16.10
2014,10,04,15,36,16.10
2014,10,04,15,37,16.10
2014,10,04,15,38,16.10
2014,10,04,15,39,16.10
2014,10,04,15,40,16.20
2014,10,04,15,41,16.20
2014,10,04,15,42,16.20
2014,10,04,15,43,16.20
2014,10,04,15,44,16.20
2014,10,04,15,45,16.20
2014,10,04,15,46,16.20
2014,10,04,15,47,16.20
2014,10,04,15,48,16.20
2014,10,04,15,49,16.20
2014,10,04,15,50,16.20
2014,10,04,15,51,16.20
2014,10,04,15,52,16.20
2014,10,04,15,53,16.20
2014,10,04,15,54,16.20
2014,10,04,15,55,16.20
2014,10,04,15,56,16.20
2014,10,04,15,57,16.30
2014,10,04,15,58,16.30
2014,10,04,15,59,16.30
2014,10,04,16,00,16.30
2014,10,04,16,01,16.30
2014,10,04,16,02,16.30
2014,10,04,16,03,16.30
2014,10,04,16,04,16.30
2014,10,04,16,05,16.30
2014,10,04,16,06,16.30
2014,10,04,16,07,16.30
2014,10,04,16,08,16.30
2014,10,04,16,09,16.30
2014,10,04,16,10,16.30
2014,10,04,16,11,16.30
2014,10,04,16,12,16.30
2014,10,04,16,13,16.20
2014,10,04,16,14,16.20
2014,10,04,16,15,16.20
2014,10,04,16,16,16.20
2014,10,04,16,17,16.20
2014,10,04,16,18,16.20
2014,10,04,16,19,16.20
2014,10,04,16,20,16.20
2014,10,04,16,21,16.20
2014,10,04,16,22,16.20
2014,10,04,16,23,16.20
2014,10,04,16,24,16.10
2014,10,04,16,25,16.10
2014,10,04,16,26,16.10
2014,10,04,16,27,16.10
2014,10,04,16,28,16.10
2014,10,04,16,29,16.10
2014,10,04,16,30,16.00
2014,10,04,16,31,16.00
2014,10,04,16,32,16.00
2014,10,04,16,33,16.00
2014,10,04,16,34,15.90
2014,10,04,16,35,15.90
2014,10,04,16,36,15.90
2014,10,04,16,37,15.90
2014,10,04,16,38,15.90
2014,10,04,16,39,15.90
2014,10,04,16,40,15.90
2014,10,04,16,41,15.90
2014,10,04,16,42,15.90
2014,10,04,16,43,16.00
2014,10,04,16,44,16.00
2014,10,04,16,45,16.00
2014,10,04,16,46,16.10
2014,10,04,16,47,16.10
2014,10,04,16,48,16.10
2014,10,04,16,49,16.10
2014,10,04,16,50,16.20
2014,10,04,16,51,16.20
2014,10,04,16,52,16.20
2014,10,04,16,53,16.20
2014,10,04,16,54,16.20
2014,10,04,16,55,16.20
2014,10,04,16,56,16.20
2014,10,04,16,57,16.30
2014,10,04,16,58,16.30
2014,10,04,16,59,16.30
2014,10,04,17,00,16.30
2014,10,04,17,01,16.30
2014,10,04,17,02,16.30
2014,10,04,17,03,16.40
2014,10,04,17,04,16.40
2014,10,04,17,05,16.40
2014,10,04,17,06,16.50
2014,10,04,17,07,16.50
2014,10,04,17,08,16.60
2014,10,04,17,09,16.60
2014,10,04,17,10,16.70
2014,10,04,17,11,16.70
2014,10,04,17,12,16.70
2014,10,04,17,13,16.70
2014,10,04,17,14,16.80
2014,10,04,17,15,16.80
2014,10,04,17,16,16.80
2014,10,04,17,17,16.80
2014,10,04,17,18,16.80
2014,10,04,17,19,16.80
2014,10,04,17,20,16.80
2014,10,04,17,21,16.90